Terminal Aerodrome Forecast
Issued by NWS

Current Version | Previous Version | Text Only | Print | Product List | Glossary On
Versions: 1 2 3 4 5 6 7 8 9 10 11 12 13 14 15 16 17 18 19 20 21 22 23 24
000
FTAK31 PANC 300536
TAFAHO
TAF
PAHO 300536Z 3006/3106 23006KT P6SM VCSH BKN035 BKN070
     FM301200 VRB03KT P6SM VCFG SCT008 BKN015
     FM302000 24008KT P6SM SCT035 BKN100=

USA.gov is the U.S. government's official web portal to all federal, state and local government web resources and services.